| time (UTC) | temp F | wind direction | speed knots | gust knots | rain 1hr in | rain 24hr in | rain mn in | humidity % | barometer mb |
| 20260506213113 | 84 | 153 | 5.2 | 8.7 | 0.00 | 0.00 | 0.00 | 86 | 1009.9 |
| 20260506211510 | 84 | 184 | 2.6 | 7.8 | 0.00 | 0.00 | 0.00 | 87 | 1010.0 |
| 20260506210010 | 84 | 135 | 5.2 | 7.8 | 0.00 | 0.00 | 0.00 | 87 | 1009.9 |
| 20260506204515 | 84 | 188 | 4.3 | 10.4 | 0.00 | 0.00 | 0.00 | 87 | 1010.1 |
| 20260506203022 | 84 | 150 | 7.0 | 10.4 | 0.00 | 0.00 | 0.00 | 87 | 1010.1 |
| 20260506201531 | 83 | 136 | 7.0 | 9.6 | 0.00 | 0.00 | 0.00 | 88 | 1010.3 |
| 20260506200021 | 83 | 146 | 5.2 | 11.3 | 0.00 | 0.00 | 0.00 | 88 | 1010.4 |
| 20260506194528 | 83 | 234 | 6.1 | 13.0 | 0.00 | 0.00 | 0.00 | 89 | 1010.5 |
| 20260506193026 | 82 | 176 | 6.1 | 10.4 | 0.00 | 0.00 | 0.00 | 89 | 1010.8 |
| 20260506191540 | 82 | 174 | 8.7 | 13.9 | 0.00 | 0.00 | 0.00 | 88 | 1010.8 |
| 20260506190036 | 82 | 140 | 7.8 | 11.3 | 0.00 | 0.00 | 0.00 | 89 | 1011.1 |
| 20260506184538 | 82 | 198 | 4.3 | 8.7 | 0.00 | 0.00 | 0.00 | 90 | 1011.3 |
| 20260506183057 | 82 | 180 | 6.1 | 11.3 | 0.00 | 0.00 | 0.00 | 89 | 1011.4 |
| 20260506181542 | 82 | 159 | 4.3 | 9.6 | 0.00 | 0.00 | 0.00 | 90 | 1011.7 |
| 20260506180053 | 81 | 148 | 6.1 | 8.7 | 0.00 | 0.00 | 0.00 | 90 | 1011.9 |
| 20260506174550 | 81 | 145 | 4.3 | 9.6 | 0.00 | 0.00 | 0.00 | 91 | 1012.0 |
| 20260506173058 | 80 | 165 | 3.5 | 7.8 | 0.00 | 0.00 | 0.00 | 92 | 1012.1 |
| 20260506171502 | 79 | 150 | 6.1 | 8.7 | 0.00 | 0.00 | 0.00 | 92 | 1012.2 |
| 20260506170114 | 79 | 192 | 4.3 | 9.6 | 0.00 | 0.00 | 0.00 | 92 | 1012.5 |
| 20260506164542 | 79 | 170 | 5.2 | 9.6 | 0.00 | 0.00 | 0.00 | 92 | 1012.3 |
| 20260506163046 | 78 | 130 | 7.0 | 9.6 | 0.00 | 0.00 | 0.00 | 93 | 1012.1 |
| 20260506161542 | 78 | 140 | 5.2 | 9.6 | 0.00 | 0.00 | 0.00 | 93 | 1012.0 |
| 20260506160043 | 78 | 135 | 5.2 | 7.0 | 0.00 | 0.00 | 0.00 | 93 | 1012.1 |
| 20260506154550 | 78 | 125 | 5.2 | 7.8 | 0.00 | 0.00 | 0.00 | 93 | 1012.0 |
| 20260506153050 | 77 | 128 | 6.1 | 7.8 | 0.00 | 0.00 | 0.00 | 93 | 1011.8 |
| 20260506151550 | 77 | 156 | 6.1 | 8.7 | 0.00 | 0.00 | 0.00 | 93 | 1011.8 |
| 20260506150100 | 77 | 150 | 5.2 | 8.7 | 0.00 | 0.00 | 0.00 | 93 | 1011.5 |
| 20260506144607 | 77 | 128 | 6.1 | 9.6 | 0.00 | 0.00 | 0.00 | 93 | 1011.1 |
| 20260506144501 | 77 | 119 | 5.2 | 9.6 | 0.00 | 0.00 | 0.00 | 93 | 1011.0 |
| 20260506143015 | 77 | 136 | 6.1 | 7.8 | 0.00 | 0.00 | 0.00 | 93 | 1011.0 |
| 20260506141510 | 77 | 144 | 5.2 | 8.7 | 0.00 | 0.00 | 0.00 | 93 | 1011.2 |
| 20260506140007 | 77 | 136 | 5.2 | 7.0 | 0.00 | 0.00 | 0.00 | 93 | 1011.2 |
| 20260506134512 | 76 | 119 | 5.2 | 7.8 | 0.00 | 0.00 | 0.00 | 93 | 1011.3 |
| 20260506133012 | 76 | 146 | 4.3 | 7.8 | 0.00 | 0.00 | 0.00 | 93 | 1011.2 |
| 20260506131515 | 76 | 132 | 5.2 | 7.8 | 0.00 | 0.00 | 0.00 | 93 | 1011.3 |
| 20260506130021 | 75 | 137 | 5.2 | 7.8 | 0.00 | 0.00 | 0.00 | 93 | 1011.2 |
| 20260506124525 | 75 | 132 | 5.2 | 7.0 | 0.00 | 0.00 | 0.00 | 93 | 1011.2 |
| 20260506123031 | 75 | 134 | 5.2 | 7.8 | 0.00 | 0.00 | 0.00 | 93 | 1011.0 |
| 20260506121528 | 75 | 142 | 5.2 | 7.8 | 0.00 | 0.00 | 0.00 | 93 | 1011.0 |
| 20260506120041 | 75 | 128 | 6.1 | 7.8 | 0.00 | 0.00 | 0.00 | 93 | 1010.9 |
| 20260506114535 | 75 | 136 | 5.2 | 7.0 | 0.00 | 0.00 | 0.00 | 93 | 1010.8 |
| 20260506113042 | 75 | 132 | 5.2 | 7.0 | 0.00 | 0.00 | 0.00 | 92 | 1010.6 |
| 20260506111545 | 75 | 127 | 4.3 | 7.0 | 0.00 | 0.00 | 0.00 | 92 | 1010.4 |
| 20260506110047 | 75 | 119 | 4.3 | 7.0 | 0.00 | 0.00 | 0.00 | 92 | 1010.3 |
| 20260506104559 | 74 | 126 | 4.3 | 6.1 | 0.00 | 0.00 | 0.00 | 92 | 1010.3 |
| 20260506103114 | 74 | 119 | 3.5 | 5.2 | 0.00 | 0.00 | 0.00 | 92 | 1010.5 |
| 20260506103003 | 74 | 119 | 3.5 | 5.2 | 0.00 | 0.00 | 0.00 | 92 | 1010.4 |
| 20260506101509 | 74 | 121 | 3.5 | 5.2 | 0.00 | 0.00 | 0.00 | 92 | 1010.3 |
| 20260506100010 | 74 | 123 | 2.6 | 5.2 | 0.00 | 0.00 | 0.00 | 91 | 1010.3 |
| 20260506094519 | 74 | 121 | 3.5 | 4.3 | 0.00 | 0.00 | 0.00 | 91 | 1010.2 |
| 20260506093019 | 74 | 121 | 3.5 | 4.3 | 0.00 | 0.00 | 0.00 | 92 | 1010.0 |
| 20260506091523 | 75 | 122 | 3.5 | 5.2 | 0.00 | 0.00 | 0.00 | 91 | 1010.1 |
| 20260506090044 | 75 | 130 | 5.2 | 7.8 | 0.00 | 0.00 | 0.00 | 92 | 1010.0 |
| 20260506084541 | 75 | 132 | 5.2 | 7.0 | 0.00 | 0.00 | 0.00 | 92 | 1010.1 |
| 20260506083037 | 75 | 117 | 5.2 | 7.8 | 0.00 | 0.00 | 0.00 | 92 | 1010.2 |
| 20260506081550 | 75 | 130 | 5.2 | 7.8 | 0.00 | 0.00 | 0.00 | 91 | 1010.2 |
| 20260506073059 | 76 | 132 | 6.1 | 7.8 | 0.00 | 0.00 | 0.00 | 91 | 1010.7 |
| 20260506071556 | 77 | 131 | 6.1 | 9.6 | 0.00 | 0.00 | 0.00 | 91 | 1011.0 |
| 20260506061535 | 77 | 141 | 6.1 | 10.4 | 0.00 | 0.00 | 0.00 | 90 | 1011.1 |
| 20260506044524 | 77 | 143 | 7.0 | 9.6 | 0.00 | 0.00 | 0.00 | 90 | 1011.0 |
| 20260506043036 | 77 | 139 | 6.1 | 10.4 | 0.00 | 0.00 | 0.00 | 90 | 1010.9 |
| 20260506041535 | 77 | 148 | 7.0 | 11.3 | 0.00 | 0.00 | 0.00 | 90 | 1010.8 |
| 20260506040043 | 76 | 143 | 6.1 | 9.6 | 0.00 | 0.00 | 0.00 | 90 | 1010.8 |
| 20260506034551 | 77 | 146 | 5.2 | 8.7 | 0.00 | 0.00 | 0.00 | 90 | 1010.7 |
| 20260506033057 | 77 | 142 | 7.8 | 12.2 | 0.00 | 0.00 | 0.00 | 90 | 1010.6 |
| 20260506031558 | 77 | 150 | 7.0 | 9.6 | 0.00 | 0.00 | 0.00 | 89 | 1010.5 |
| 20260506030004 | 77 | 162 | 6.1 | 9.6 | 0.00 | 0.00 | 0.00 | 89 | 1010.5 |
| 20260506024525 | 77 | 146 | 6.1 | 9.6 | 0.00 | 0.00 | 0.00 | 89 | 1010.3 |
| 20260506023022 | 78 | 151 | 7.0 | 11.3 | 0.00 | 0.00 | 0.00 | 88 | 1010.2 |
| 20260506021532 | 78 | 135 | 7.0 | 12.2 | 0.00 | 0.00 | 0.00 | 88 | 1009.9 |
| 20260506020037 | 78 | 164 | 7.0 | 11.3 | 0.00 | 0.00 | 0.00 | 88 | 1009.8 |
| 20260506014542 | 78 | 151 | 9.6 | 12.2 | 0.00 | 0.00 | 0.00 | 88 | 1009.6 |
| 20260506013054 | 78 | 135 | 7.0 | 12.2 | 0.00 | 0.00 | 0.00 | 88 | 1009.3 |
| 20260506011604 | 78 | 129 | 6.1 | 8.7 | 0.00 | 0.00 | 0.00 | 87 | 1009.2 |
| 20260506010058 | 78 | 139 | 8.7 | 12.2 | 0.00 | 0.00 | 0.00 | 87 | 1008.9 |
| 20260506004508 | 79 | 142 | 9.6 | 13.0 | 0.00 | 0.00 | 0.00 | 86 | 1008.7 |
| 20260506003009 | 79 | 139 | 7.8 | 11.3 | 0.00 | 0.00 | 0.00 | 86 | 1008.6 |
| 20260506001513 | 79 | 148 | 7.8 | 16.5 | 0.00 | 0.00 | 0.00 | 85 | 1008.6 |
| 20260506000017 | 80 | 160 | 8.7 | 17.4 | 0.00 | 0.00 | 0.00 | 85 | 1008.7 |
| 20260505234522 | 80 | 160 | 7.0 | 13.9 | 0.00 | 0.00 | 0.00 | 85 | 1008.6 |
| 20260505233025 | 80 | 153 | 6.1 | 13.0 | 0.00 | 0.00 | 0.00 | 85 | 1008.5 |
| 20260505231533 | 80 | 155 | 7.8 | 13.0 | 0.00 | 0.00 | 0.00 | 85 | 1008.6 |
| 20260505230037 | 80 | 138 | 6.1 | 13.9 | 0.00 | 0.00 | 0.00 | 85 | 1008.7 |
| 20260505224540 | 81 | 154 | 7.0 | 13.0 | 0.00 | 0.00 | 0.00 | 84 | 1008.8 |
| 20260505223050 | 81 | 194 | 8.7 | 13.9 | 0.00 | 0.00 | 0.00 | 84 | 1008.8 |
| 20260505221557 | 81 | 148 | 7.8 | 13.9 | 0.00 | 0.00 | 0.00 | 84 | 1008.9 |
| 20260505220057 | 82 | 180 | 6.1 | 13.9 | 0.00 | 0.00 | 0.00 | 84 | 1009.0 |
| 20260505214621 | 82 | 179 | 6.1 | 13.0 | 0.00 | 0.00 | 0.00 | 84 | 1009.1 |
| 20260505214501 | 82 | 105 | 5.2 | 13.0 | 0.00 | 0.00 | 0.00 | 84 | 1009.1 |